Weather History for KLOR - January, 2014

Change the Weather History Date:

Tuesday, January 28, 2014

  Actual Average (KDHN) Record (KDHN)
Temperature  
Mean Temperature 34 °F 50 °F  
Max Temperature 43 °F 61 °F 78 °F (1950)
Min Temperature 25 °F 38 °F 16 °F (1940)
Degree Days  
Heating Degree Days 30 15  
Month to date heating degree days 458  
Since 1 July heating degree days 1171  
Moisture  
Dew Point 24 °F    
Average Humidity 74    
Maximum Humidity 93    
Minimum Humidity 34    
Precipitation  
Precipitation 0.54 in 0.16 in 1.43 in (1930)
Month to date precipitation 4.06  
Year to date precipitation 4.06  
Sea Level Pressure  
Sea Level Pressure 30.15 in    
Wind  
Wind Speed 9 mph (North)    
Max Wind Speed 15 mph    
Max Gust Speed 22 mph    
Visibility 6 miles    
Events Rain , Snow    
T = Trace of Precipitation, MM = Missing Value Source: NWS Daily Summary

Daily Weather History Graph

Daily Weather History Graph

Search for Another Location

Airport or City:

Trip Planner

Search our weather history database for the weather conditions in past years. The results will help you decide how hot, cold, wet, or windy it might be!

Date:

Astronomy

Jan. 28, 2014 Rise Set
Actual Time 6:37 AM CST 5:14 PM CST
Civil Twilight 6:12 AM CST 5:40 PM CST
Nautical Twilight 5:42 AM CST 6:09 PM CST
Astronomical Twilight 5:14 AM CST 6:38 PM CST
Moon 4:16 AM CST (1/28) 3:05 PM CST (1/28)
Length of Visible Light 11h 27m
Length of Day
10h 36m
Waning Crescent, 7% of the Moon is Illuminated
Jan 28
Waning Crescent
Jan 30
New
Feb 6
First Quarter
Feb 14
Full
Feb 22
Last Quarter

Hourly Weather History & Observations

Time (CST) Temp. Windchill Dew Point Humidity Pressure Visibility Wind Dir Wind Speed Gust Speed Precip Events Conditions
12:53 AM 43.0 °F 37.2 °F 26.1 °F 51% 30.06 in 10.0 mi North 10.4 mph - N/A   Overcast
1:53 AM 41.0 °F 37.1 °F 19.9 °F 43% 30.07 in 10.0 mi NNE 5.8 mph - N/A   Overcast
2:30 AM 39.0 °F 31.8 °F 18.0 °F 43% 30.06 in 10.0 mi North 11.5 mph 18.4 mph N/A   Overcast
2:53 AM 39.0 °F 32.8 °F 17.1 °F 41% 30.06 in 10.0 mi NNE 9.2 mph 19.6 mph N/A   Overcast
3:12 AM 37.9 °F 32.7 °F 17.1 °F 43% 30.06 in 10.0 mi North 6.9 mph - N/A   Overcast
3:53 AM 37.9 °F 30.5 °F 16.0 °F 41% 30.07 in 10.0 mi North 11.5 mph 17.3 mph N/A   Overcast
4:53 AM 37.0 °F 30.4 °F 14.0 °F 39% 30.09 in 10.0 mi NNE 9.2 mph 17.3 mph N/A   Overcast
5:53 AM 36.0 °F 29.0 °F 16.0 °F 44% 30.10 in 10.0 mi North 9.2 mph - N/A   Overcast
6:34 AM 36.0 °F 28.0 °F 14.0 °F 41% 30.13 in 10.0 mi North 11.5 mph - N/A   Overcast
6:53 AM 36.0 °F 30.3 °F 14.0 °F 41% 30.12 in 10.0 mi North 6.9 mph - N/A   Overcast
7:53 AM 36.0 °F 29.0 °F 10.0 °F 34% 30.16 in 10.0 mi North 9.2 mph - N/A   Overcast
8:53 AM 36.0 °F 29.6 °F 10.9 °F 36% 30.16 in 10.0 mi North 8.1 mph - N/A   Overcast
9:53 AM 36.0 °F 28.5 °F 10.9 °F 36% 30.20 in 10.0 mi NNW 10.4 mph - N/A   Overcast
10:22 AM 36.0 °F 29.0 °F 10.0 °F 34% 30.18 in 10.0 mi North 9.2 mph 17.3 mph N/A   Overcast
10:53 AM 36.0 °F 29.6 °F 12.0 °F 37% 30.18 in 10.0 mi North 8.1 mph - N/A   Overcast
11:53 AM 34.0 °F 27.2 °F 23.0 °F 64% 30.15 in 10.0 mi North 8.1 mph - 0.01 in   Overcast
12:53 PM 30.9 °F 22.2 °F 26.1 °F 82% 30.14 in 7.0 mi North 10.4 mph - 0.01 in   Overcast
1:24 PM 30.9 °F 23.5 °F 27.0 °F 85% 30.13 in 5.0 mi North 8.1 mph - 0.02 in Rain Light Freezing Rain
1:39 PM 30.9 °F 23.5 °F 28.0 °F 89% 30.11 in 5.0 mi North 8.1 mph - 0.03 in Rain Light Freezing Rain
1:53 PM 30.9 °F 24.3 °F 28.0 °F 89% 30.12 in 9.0 mi North 6.9 mph - 0.03 in Rain Light Freezing Rain
2:53 PM 30.9 °F 22.8 °F 28.0 °F 89% 30.11 in 4.0 mi North 9.2 mph - 0.04 in Rain Light Freezing Rain
3:20 PM 30.9 °F 22.2 °F 28.0 °F 89% 30.11 in 3.0 mi North 10.4 mph - 0.02 in Rain Light Freezing Rain
3:37 PM 30.9 °F 22.8 °F 28.0 °F 89% 30.12 in 4.0 mi North 9.2 mph 17.3 mph 0.04 in Rain Light Freezing Rain
3:53 PM 32.0 °F 24.8 °F 28.9 °F 88% 30.12 in 4.0 mi North 8.1 mph - 0.05 in Rain Light Freezing Rain
4:01 PM 32.0 °F 26.4 °F 28.9 °F 88% 30.11 in 3.0 mi NNE 5.8 mph - 0.01 in Rain Light Freezing Rain
4:07 PM 32.0 °F 24.8 °F 28.9 °F 88% 30.11 in 2.5 mi NNE 8.1 mph - 0.02 in   Overcast
4:37 PM 32.0 °F 24.2 °F 30.0 °F 92% 30.12 in 3.0 mi North 9.2 mph - 0.07 in   Overcast
4:53 PM 32.0 °F 24.2 °F 28.9 °F 88% 30.13 in 4.0 mi North 9.2 mph - 0.10 in Rain Light Freezing Rain
5:17 PM 32.0 °F 25.6 °F 30.0 °F 92% 30.12 in 5.0 mi North 6.9 mph - 0.04 in Rain Light Freezing Rain
5:22 PM 33.1 °F 26.9 °F 30.0 °F 89% 30.14 in 5.0 mi Variable 6.9 mph - 0.04 in Rain Light Freezing Rain
5:53 PM 33.1 °F 26.9 °F 30.0 °F 89% 30.15 in 4.0 mi North 6.9 mph - 0.08 in Rain Light Freezing Rain
6:28 PM 33.1 °F 26.1 °F 30.0 °F 89% 30.15 in 4.0 mi North 8.1 mph - 0.04 in Rain Light Freezing Rain
6:53 PM 32.0 °F 23.0 °F 28.9 °F 88% 30.17 in 5.0 mi North 11.5 mph - 0.07 in Rain Light Freezing Rain
7:00 PM 32.0 °F 23.0 °F 28.9 °F 88% 30.16 in 5.0 mi North 11.5 mph - 0.01 in Rain Light Freezing Rain
7:07 PM 32.0 °F 24.8 °F 28.9 °F 88% 30.16 in 4.0 mi North 8.1 mph - 0.02 in Rain Light Freezing Rain
7:12 PM 32.0 °F 23.6 °F 30.0 °F 92% 30.16 in 4.0 mi North 10.4 mph - 0.03 in Rain Light Freezing Rain
7:36 PM 32.0 °F 23.6 °F 30.0 °F 92% 30.18 in 4.0 mi North 10.4 mph - 0.05 in Rain Light Freezing Rain
7:53 PM 32.0 °F 24.2 °F 28.9 °F 88% 30.21 in 4.0 mi North 9.2 mph - 0.07 in Rain Light Freezing Rain
8:00 PM 30.9 °F 21.2 °F 28.9 °F 92% 30.21 in 4.0 mi North 12.7 mph - 0.01 in Rain Light Freezing Rain
8:07 PM 30.9 °F 21.7 °F 28.0 °F 89% 30.21 in 4.0 mi North 11.5 mph - 0.01 in Rain Light Freezing Rain
8:15 PM 30.9 °F 22.8 °F 28.0 °F 89% 30.21 in 3.0 mi NNW 9.2 mph - 0.02 in Rain Light Freezing Rain
8:20 PM 30.9 °F 21.7 °F 28.0 °F 89% 30.21 in 2.5 mi NNW 11.5 mph - 0.02 in Rain Light Freezing Rain
8:37 PM 30.0 °F 21.1 °F 27.0 °F 88% 30.21 in 2.5 mi North 10.4 mph - 0.04 in   Overcast
8:49 PM 28.4 °F 17.0 °F 26.6 °F 93% 30.21 in 3.0 mi North 15.0 mph 21.9 mph 0.05 in   Overcast
8:53 PM 28.9 °F 18.2 °F 25.0 °F 85% 30.21 in 4.0 mi North 13.8 mph 21.9 mph 0.05 in   Overcast
9:32 PM 27.0 °F 16.1 °F 24.1 °F 89% 30.22 in 5.0 mi North 12.7 mph 19.6 mph 0.02 in Rain Light Freezing Rain
9:53 PM 27.0 °F 16.7 °F 23.0 °F 85% 30.23 in 7.0 mi North 11.5 mph - 0.02 in   Overcast
10:53 PM 26.1 °F 17.6 °F 23.0 °F 88% 30.25 in 4.0 mi North 8.1 mph - 0.00 in Snow Light Snow
11:05 PM 26.1 °F 16.2 °F 21.9 °F 84% 30.24 in 3.0 mi North 10.4 mph - 0.01 in Snow Light Snow
11:32 PM 26.1 °F 15.0 °F 21.9 °F 84% 30.23 in 7.0 mi North 12.7 mph - 0.01 in   Overcast
11:53 PM 25.0 °F 14.2 °F 21.9 °F 88% 30.24 in 6.0 mi North 11.5 mph 20.7 mph 0.01 in   Overcast